User: anonymous   Login
Location: Buckeye Ditch
(40.9104°N, 122.9517°W)
Time: 03:34:16
(UTC+00:00)
Language:

DMSP B5D2-2 - Orbit

View from above orbital plane
View from above orbital plane
View from above satellite
View from above satellite

Ground track
Ground track

The orbit data is extracted from the following two-line orbital elements,

1 14506U 83113A   24164.95873049  .00000504  00000-0  21596-3 0  9999
2 14506  98.3306 327.5617 0009957 236.5141 237.8649 14.28933858110596
Epoch (UTC): 12 June 2024 23:00:34
Eccentricity: 0.0009957
inclination: 98.3306°
perigee height: 788 km
apogee height: 802 km
right ascension of ascending node: 327.5617°
argument of perigee: 236.5141°
revolutions per day: 14.28933858
mean anomaly at epoch: 237.8649°
orbit number at epoch: 11059

The dashed part of the orbit path shows where the satellite is in the earth's shadow,  

DLR